Tracking 19638 objects as of 21-Apr-2019
HD Live streaming from Space Station
objects crossing your sky now

OPS 9316 (IDSCS 6)

Track OPS 9316 (IDSCS 6) now!
OPS 9316 (IDSCS 6) is classified as:


NORAD ID: 2220
Int'l Code: 1966-053G
Perigee: 33,733.8 km
Apogee: 34,201.7 km
Inclination: 3.6 °
Period: 1,343.8 minutes
Semi major axis: 40338 km
RCS: 0.0794 m2 (small)
Launch date: June 16, 1966
Source: United States (US)
Launch site: AIR FORCE EASTERN TEST RANGE (AFETR)
aabbcc
Your satellite tracking list
Your tracking list is empty




NASA's NSSDC Master Catalog

Two Line Element Set (TLE):
1  2220U 66053G   19110.59614171 -.00000103 +00000-0 +00000-0 0  9997
2  2220 003.5957 060.1930 0057998 113.5365 099.6110 01.07156678111031
Source of the keplerian elements: AFSPC